User: anonymous   Login
Location: Unspecified
(0.0000°N, 0.0000°E)
Time: 09:29:17
(UTC+01:00)
Language:

Cosmos 1703 - Orbit

View from above orbital plane
View from above orbital plane
View from above satellite
View from above satellite

Ground track
Ground track

The orbit data is extracted from the following two-line orbital elements,

1 16262U 85108A   14331.42211901  .00005706  00000-0  38122-3 0  5703
2 16262 082.4933 083.8109 0011473 264.7297 095.2621 15.06766725578213
Epoch (UTC): 27 November 2014 10:07:51
Eccentricity: 0.0011473
inclination: 82.4933°
perigee height: 538 km
apogee height: 554 km
right ascension of ascending node: 83.8109°
argument of perigee: 264.7297°
revolutions per day: 15.06766725
mean anomaly at epoch: 95.2621°
orbit number at epoch: 57821

The dashed part of the orbit path shows where the satellite is in the earth's shadow,  

DLR